User: anonymous   Login
Location: *
(29.1167°S, 130.0000°E)
Time: 22:44:08
(UTC+00:00)
Language:

Okean-O - Orbit

View from above orbital plane
View from above orbital plane
View from above satellite
View from above satellite

Ground track
Ground track

The orbit data is extracted from the following two-line orbital elements,

1 25860U 99039A   19262.92134711 +.00000011 +00000-0 +92538-5 0  9993
2 25860 098.2272 271.9891 0001604 069.7847 290.3535 14.76621761085441
Epoch (UTC): 19 September 2019 22:06:44
Eccentricity: 0.0001604
inclination: 98.2272°
perigee height: 639 km
apogee height: 641 km
right ascension of ascending node: 271.9891°
argument of perigee: 69.7847°
revolutions per day: 14.76621761
mean anomaly at epoch: 290.3535°
orbit number at epoch: 8544

The dashed part of the orbit path shows where the satellite is in the earth's shadow,  

DLR